This is the latest recevied weather packets stored in our database for station/object DO2HBA-6. If no packets are shown the sender has not sent any weather packets the latest 10 day(s).
| Time | Temp. | Humidity | Pressure | Rain* | Wind** | Luminosity | Snow |
|---|---|---|---|---|---|---|---|
| 1777903393 | 27.78° C | 31% | 1012.4 hPa | 0 mm | - | - | - |
| 1777903093 | 27.78° C | 30% | 1012.6 hPa | 0 mm | - | - | - |
| 1777902792 | 27.78° C | 30% | 1012.7 hPa | 0 mm | - | - | - |
| 1777902492 | 27.78° C | 30% | 1012.7 hPa | 0 mm | - | - | - |
| 1777902192 | 27.78° C | 31% | 1012.8 hPa | 0 mm | - | - | - |
| 1777901891 | 27.22° C | 31% | 1012.8 hPa | 0 mm | - | - | - |
| 1777901591 | 26.67° C | 30% | 1012.9 hPa | 0 mm | - | - | - |
| 1777901291 | 26.67° C | 30% | 1012.9 hPa | 0 mm | - | - | - |
| 1777900991 | 26.67° C | 30% | 1013 hPa | 0 mm | - | - | - |
| 1777900690 | 27.22° C | 30% | 1013.3 hPa | 0 mm | - | - | - |
| 1777900390 | 28.33° C | 29% | 1013.3 hPa | 0 mm | - | - | - |
| 1777900090 | 28.89° C | 30% | 1013.2 hPa | 0 mm | - | - | - |
| 1777899789 | 28.89° C | 31% | 1013.1 hPa | 0 mm | - | - | - |
| 1777899489 | 28.89° C | 31% | 1013.3 hPa | 0 mm | - | - | - |
| 1777899189 | 28.89° C | 30% | 1013.5 hPa | 0 mm | - | - | - |
| 1777898889 | 28.89° C | 30% | 1013.4 hPa | 0 mm | - | - | - |
| 1777898588 | 28.89° C | 31% | 1013.6 hPa | 0 mm | - | - | - |
| 1777898288 | 28.89° C | 31% | 1013.6 hPa | 0 mm | - | - | - |
| 1777897988 | 28.33° C | 32% | 1013.6 hPa | 0 mm | - | - | - |
| 1777897687 | 28.33° C | 32% | 1013.6 hPa | 0 mm | - | - | - |
| 1777897387 | 27.78° C | 33% | 1013.6 hPa | 0 mm | - | - | - |
| 1777897087 | 27.78° C | 33% | 1013.7 hPa | 0 mm | - | - | - |
| 1777896786 | 27.78° C | 33% | 1013.8 hPa | 0 mm | - | - | - |
| 1777896486 | 27.78° C | 33% | 1013.7 hPa | 0 mm | - | - | - |
| 1777896186 | 27.78° C | 32% | 1013.8 hPa | 0 mm | - | - | - |
* Rain latest hour (hover to see other rain measurements)
** Current wind speed in m/s (hover to see current wind gust speed)